Location: Newark
(50.4348°N, 30.5552°E)
Time: 12:13:51
(UTC+00:00)

Envisat - Pass Details

Date: 08 December 2019
Orbit: 764 x 766 km, 98.1° (Epoch: 18 January)

Event Time Altitude Azimuth Distance (km) Brightness Sun altitude
Rises 15:31:06 0° 158° (SSE) 3,222 6.2 -14.5°
Reaches altitude 10° 15:33:24 10° 157° (SSE) 2,300 5.4 -14.9°
Maximum altitude 15:38:27 76° 73° (ENE) 797 2.9 -15.6°
Drops below altitude 10° 15:43:33 10° 349° (NNW) 2,317 5.4 -16.4°
Sets 15:45:52 0° 348° (NNW) 3,248 6.2 -16.8°
